Change the Weather History Date:

Wednesday, June 18, 2014

  Actual Average (KPBG) Record (KPBG)
Temperature  
Mean Temperature 72 °F 65 °F  
Max Temperature 81 °F 76 °F 92 °F (1957)
Min Temperature 64 °F 54 °F 41 °F (1956)
Cooling Degree Days 8 2  
Month to date cooling degree days 29  
Year to date cooling degree days 37  
Since 1 June cooling degree days 29  
Growing Degree Days 22 (Base 50)    
Moisture  
Dew Point 62 °F    
Average Humidity 72    
Maximum Humidity 90    
Minimum Humidity 51    
Precipitation  
Precipitation 0.00 in - 1.10 in (1977)
Month to date precipitation  
Year to date precipitation  
Sea Level Pressure  
Sea Level Pressure 29.82 in    
Wind  
Wind Speed 5 mph (WNW)    
Max Wind Speed 10 mph    
Max Gust Speed 20 mph    
Visibility 10 miles    
Events Rain    
T = Trace of Precipitation, MM = Missing Value Source: NWS Daily Summary

Daily Weather History Graph

Daily Weather History Graph

Search for Another Location

Airport or City:

Trip Planner

Search our weather history database for the weather conditions in past years. The results will help you decide how hot, cold, wet, or windy it might be!

Date:

Astronomy

Jun. 18, 2014 Rise Set
Actual Time 5:05 AM EDT 8:41 PM EDT
Civil Twilight 4:28 AM EDT 9:19 PM EDT
Nautical Twilight 3:38 AM EDT 10:08 PM EDT
Astronomical Twilight 2:32 AM EDT 11:14 PM EDT
Moon No Moon Rise 11:40 AM EDT (6/18)
Length of Visible Light 16h 51m
Length of Day
15h 36m
Waning Gibbous, 63% of the Moon is Illuminated
Jun 18
Waning Gibbous
Jun 19
Last Quarter
Jun 27
New
Jul 5
First Quarter
Jul 12
Full

Hourly Weather History & Observations

Time (EDT) Temp. Heat Index Dew Point Humidity Pressure Visibility Wind Dir Wind Speed Gust Speed Precip Events Conditions
12:15 AM 68.9 °F - 64.4 °F 86% 29.64 in 2.0 mi Calm Calm - N/A Rain Heavy Rain
12:35 AM 68.5 °F - 64.6 °F 87% 29.61 in 7.0 mi ESE 6.9 mph - N/A Rain Light Rain
12:55 AM 71.1 °F - 67.3 °F 88% 29.61 in 10.0 mi South 4.6 mph - N/A Rain Light Rain
1:15 AM 70.9 °F - 67.5 °F 89% 29.60 in 10.0 mi South 6.9 mph - N/A   Overcast
1:35 AM 71.1 °F - 67.5 °F 88% 29.60 in 10.0 mi SSW 6.9 mph - N/A   Overcast
2:15 AM 71.1 °F - 67.1 °F 87% 29.59 in 10.0 mi South 10.4 mph 19.6 mph N/A   Overcast
2:35 AM 71.1 °F - 66.6 °F 86% 29.59 in 7.0 mi SSW 9.2 mph 18.4 mph N/A Rain Rain
2:55 AM 71.1 °F - 67.1 °F 87% 29.61 in 3.0 mi West 5.8 mph - N/A Rain Heavy Rain
3:15 AM 71.1 °F - 67.5 °F 88% 29.62 in 10.0 mi West 5.8 mph - N/A Rain Light Rain
3:35 AM 71.1 °F - 67.6 °F 89% 29.64 in 10.0 mi West 5.8 mph - N/A   Overcast
3:55 AM 70.9 °F - 67.3 °F 88% 29.64 in 10.0 mi West 3.5 mph - N/A   Overcast
4:15 AM 66.7 °F - 63.1 °F 88% 29.66 in 10.0 mi West 4.6 mph - N/A   Overcast
4:35 AM 64.8 °F - 61.7 °F 90% 29.68 in 10.0 mi NW 5.8 mph - N/A   Overcast
4:55 AM 64.2 °F - 61.2 °F 90% 29.70 in 10.0 mi NW 5.8 mph - N/A   Overcast
5:15 AM 64.4 °F - 61.2 °F 89% 29.71 in 10.0 mi NNW 6.9 mph 19.6 mph N/A   Overcast
5:35 AM 64.8 °F - 61.7 °F 90% 29.73 in 10.0 mi NNW 9.2 mph 17.3 mph N/A   Overcast
5:55 AM 66.2 °F - 62.6 °F 88% 29.74 in 10.0 mi NW 5.8 mph - N/A   Overcast
6:15 AM 66.2 °F - 62.6 °F 88% 29.76 in 10.0 mi NW 8.1 mph - N/A   Overcast
6:35 AM 66.2 °F - 62.6 °F 88% 29.78 in 10.0 mi NW 8.1 mph - N/A   Overcast
6:55 AM 66.2 °F - 62.2 °F 87% 29.79 in 10.0 mi NW 8.1 mph - N/A   Overcast
7:15 AM 66.2 °F - 62.2 °F 87% 29.80 in 10.0 mi NNW 5.8 mph - N/A   Overcast
7:35 AM 66.2 °F - 62.2 °F 87% 29.80 in 10.0 mi Calm Calm - N/A   Overcast
7:55 AM 66.2 °F - 62.1 °F 86% 29.81 in 10.0 mi NW 3.5 mph - N/A   Overcast
8:15 AM 66.4 °F - 62.4 °F 87% 29.81 in 10.0 mi Calm Calm - N/A   Overcast
8:35 AM 68.4 °F - 64.0 °F 86% 29.82 in 10.0 mi Calm Calm - N/A   Overcast
8:55 AM 68.5 °F - 63.9 °F 85% 29.82 in 10.0 mi Calm Calm - N/A   Overcast
9:15 AM 68.5 °F - 64.0 °F 85% 29.82 in 10.0 mi West 4.6 mph - N/A   Overcast
9:35 AM 68.5 °F - 63.7 °F 84% 29.84 in 10.0 mi WNW 4.6 mph - N/A   Overcast
10:15 AM 68.5 °F - 63.7 °F 84% 29.85 in 10.0 mi Calm Calm - N/A   Overcast
10:35 AM 68.5 °F - 63.5 °F 84% 29.87 in 10.0 mi WNW 4.6 mph - N/A   Overcast
10:55 AM 71.1 °F - 65.5 °F 82% 29.87 in 10.0 mi Calm Calm - N/A   Overcast
11:15 AM 71.1 °F - 63.5 °F 77% 29.87 in 10.0 mi West 3.5 mph - N/A   Overcast
11:35 AM 73.6 °F - 64.4 °F 73% 29.87 in 10.0 mi WNW 4.6 mph - N/A   Overcast
11:55 AM 76.1 °F - 65.5 °F 70% 29.87 in 10.0 mi NW 6.9 mph - N/A   Overcast
12:15 PM 76.1 °F - 64.0 °F 66% 29.88 in 10.0 mi WNW 5.8 mph - N/A   Mostly Cloudy
12:35 PM 76.1 °F - 63.1 °F 64% 29.87 in 10.0 mi WNW 5.8 mph - N/A   Scattered Clouds
12:55 PM 77.2 °F - 61.9 °F 59% 29.88 in 10.0 mi NW 4.6 mph - N/A   Scattered Clouds
1:15 PM 77.4 °F - 62.6 °F 60% 29.88 in 10.0 mi West 8.1 mph - N/A   Mostly Cloudy
1:35 PM 78.8 °F - 62.2 °F 57% 29.88 in 10.0 mi West 8.1 mph - N/A   Mostly Cloudy
2:15 PM 78.8 °F - 62.1 °F 56% 29.88 in 10.0 mi West 6.9 mph 17.3 mph N/A   Mostly Cloudy
2:35 PM 78.4 °F - 63.1 °F 59% 29.88 in 10.0 mi West 9.2 mph 17.3 mph N/A   Mostly Cloudy
2:55 PM 78.8 °F - 61.5 °F 55% 29.87 in 10.0 mi West 8.1 mph - N/A   Scattered Clouds
3:35 PM 81.1 °F 82.7 °F 64.0 °F 56% 29.87 in 10.0 mi West 8.1 mph - N/A   Scattered Clouds
3:55 PM 79.0 °F - 61.0 °F 54% 29.87 in 10.0 mi West 5.8 mph - N/A   Scattered Clouds
4:35 PM 81.1 °F 82.1 °F 62.2 °F 52% 29.87 in 10.0 mi WNW 5.8 mph 16.1 mph N/A   Mostly Cloudy
4:55 PM 78.8 °F - 61.0 °F 54% 29.87 in 10.0 mi West 3.5 mph - N/A   Mostly Cloudy
5:15 PM 79.7 °F - 60.4 °F 52% 29.87 in 10.0 mi West 8.1 mph 18.4 mph N/A   Mostly Cloudy
5:35 PM 78.8 °F - 59.4 °F 51% 29.87 in 10.0 mi WNW 6.9 mph - N/A   Scattered Clouds
5:55 PM 78.6 °F - 59.7 °F 52% 29.87 in 10.0 mi West 4.6 mph - N/A   Scattered Clouds
6:15 PM 78.8 °F - 60.3 °F 53% 29.87 in 10.0 mi West 5.8 mph - N/A   Scattered Clouds
6:35 PM 77.9 °F - 59.9 °F 54% 29.87 in 10.0 mi West 5.8 mph - N/A   Scattered Clouds
6:55 PM 76.1 °F - 59.5 °F 56% 29.88 in 10.0 mi WNW 6.9 mph - N/A   Mostly Cloudy
7:15 PM 76.1 °F - 59.9 °F 57% 29.88 in 10.0 mi West 5.8 mph - N/A   Overcast
7:35 PM 76.1 °F - 59.9 °F 57% 29.89 in 10.0 mi West 4.6 mph - N/A   Mostly Cloudy
7:55 PM 76.1 °F - 59.2 °F 56% 29.90 in 10.0 mi WNW 4.6 mph - N/A   Scattered Clouds
8:15 PM 76.1 °F - 58.5 °F 54% 29.91 in 10.0 mi West 5.8 mph - N/A   Scattered Clouds
8:35 PM 73.6 °F - 57.6 °F 57% 29.91 in 10.0 mi West 3.5 mph - N/A   Scattered Clouds
8:55 PM 73.0 °F - 57.9 °F 59% 29.92 in 10.0 mi WNW 3.5 mph - N/A   Scattered Clouds
9:15 PM 72.5 °F - 57.9 °F 60% 29.93 in 10.0 mi WNW 3.5 mph - N/A   Mostly Cloudy
9:35 PM 71.1 °F - 57.2 °F 61% 29.93 in 10.0 mi Calm Calm - N/A   Overcast
9:55 PM 71.1 °F - 58.3 °F 64% 29.94 in 10.0 mi Calm Calm - N/A   Mostly Cloudy
10:15 PM 71.1 °F - 58.6 °F 65% 29.95 in 10.0 mi West 3.5 mph - N/A   Overcast
10:35 PM 71.1 °F - 59.0 °F 66% 29.95 in 10.0 mi Calm Calm - N/A   Mostly Cloudy
10:55 PM 71.1 °F - 58.5 °F 64% 29.96 in 10.0 mi Calm Calm - N/A   Overcast
11:15 PM 71.1 °F - 57.7 °F 63% 29.96 in 10.0 mi Calm Calm - N/A   Overcast
11:35 PM 71.1 °F - 58.1 °F 63% 29.96 in 10.0 mi Calm Calm - N/A   Overcast
11:55 PM 71.1 °F - 58.1 °F 63% 29.96 in 10.0 mi NW 3.5 mph - N/A   Overcast